カタログに戻る

STARLINK-35534

運用中通信VLEO
NORAD 66202·PAYLOAD·🇺🇸 United States

打ち上げ Oct 26, 2025 から Cape Canaveral Space Force Station

Loading…

次のパス (今後24時間)

TLE

最新Source: CelesTrak SupGP

元期: Sep 14, 2026, 21:01 UTC

1 66202C 25243AB  26257.87618056 -.00024192  00000+0 -71488-3 0  2572
2 66202  53.1601  85.9498 0001284  82.4308  31.9329 15.34397194    11

AllMySatでSTARLINK-35534をリアルタイム追跡

Download on the App Store